Weather History for KOMK - August, 2014

Change the Weather History Date:

Friday, August 29, 2014

  Actual Average Record
Temperature  
Mean Temperature 67 °F 69 °F  
Max Temperature 80 °F 84 °F 96 °F (1967)
Min Temperature 54 °F 54 °F 38 °F (1937)
Degree Days  
Heating Degree Days 0 1  
Month to date heating degree days 0 9  
Since 1 June heating degree days 40 93  
Since 1 July heating degree days 2 24  
Cooling Degree Days 2 5  
Month to date cooling degree days 328 236  
Year to date cooling degree days 824 597  
Since 1 June cooling degree days 810 574  
Growing Degree Days 17 (Base 50)    
Moisture  
Dew Point 47 °F    
Average Humidity 53    
Maximum Humidity 77    
Minimum Humidity 28    
Precipitation  
Precipitation 0.00 in 0.02 in 0.24 in (1951)
Month to date precipitation 0.85 0.44  
Year to date precipitation 6.24 9.00  
Sea Level Pressure  
Sea Level Pressure 29.84 in    
Wind  
Wind Speed 7 mph (NW)    
Max Wind Speed 15 mph    
Max Gust Speed 21 mph    
Visibility 10 miles    
Events      
T = Trace of Precipitation, MM = Missing Value Source: NWS Daily Summary

Daily Weather History Graph

Daily Weather History Graph

Search for Another Location

Airport or City:

Trip Planner

Search our weather history database for the weather conditions in past years. The results will help you decide how hot, cold, wet, or windy it might be!

Date:

Astronomy

Aug. 29, 2014 Rise Set
Actual Time 6:11 AM PDT 7:45 PM PDT
Civil Twilight 5:38 AM PDT 8:18 PM PDT
Nautical Twilight 4:58 AM PDT 8:58 PM PDT
Astronomical Twilight 4:14 AM PDT 9:41 PM PDT
Moon 10:27 AM PDT (8/29) 9:22 PM PDT (8/29)
Length of Visible Light 14h 39m
Length of Day
13h 34m
Waxing Crescent, 16% of the Moon is Illuminated
Aug 29
Waxing Crescent
Sep 2
First Quarter
Sep 8
Full
Sep 15
Last Quarter
Sep 23
New

Hourly Weather History & Observations

Time (PDT) Temp. Dew Point Humidity Pressure Visibility Wind Dir Wind Speed Gust Speed Precip Events Conditions
12:53 AM 64.9 °F 48.9 °F 56% 29.90 in 10.0 mi NW 6.9 mph - N/A   Clear
1:53 AM 62.1 °F 50.0 °F 65% 29.90 in 10.0 mi NNW 9.2 mph - N/A   Clear
2:53 AM 62.1 °F 50.0 °F 65% 29.89 in 10.0 mi North 6.9 mph - N/A   Clear
3:53 AM 59.0 °F 48.0 °F 67% 29.89 in 10.0 mi North 6.9 mph - N/A   Clear
4:53 AM 57.9 °F 48.9 °F 72% 29.89 in 10.0 mi North 8.1 mph - N/A   Clear
5:53 AM 55.0 °F 48.0 °F 77% 29.88 in 10.0 mi WNW 5.8 mph - N/A   Clear
6:53 AM 55.9 °F 46.0 °F 69% 29.89 in 10.0 mi West 4.6 mph - N/A   Clear
7:53 AM 63.0 °F 50.0 °F 63% 29.89 in 10.0 mi Calm Calm - N/A   Clear
8:53 AM 66.0 °F 50.0 °F 56% 29.88 in 10.0 mi East 3.5 mph - N/A   Clear
9:53 AM 69.1 °F 50.0 °F 51% 29.86 in 10.0 mi East 4.6 mph - N/A   Clear
10:53 AM 73.0 °F 50.0 °F 44% 29.84 in 10.0 mi Variable 3.5 mph - N/A   Clear
11:53 AM 78.1 °F 48.9 °F 36% 29.81 in 10.0 mi SW 6.9 mph 16.1 mph N/A   Clear
1:53 PM 79.0 °F 43.0 °F 28% 29.77 in 10.0 mi SW 12.7 mph - N/A   Clear
2:53 PM 79.0 °F 44.1 °F 29% 29.77 in 10.0 mi SSW 5.8 mph - N/A   Scattered Clouds
3:53 PM 79.0 °F 43.0 °F 28% 29.77 in 10.0 mi West 5.8 mph - N/A   Scattered Clouds
4:53 PM 78.1 °F 42.1 °F 28% 29.77 in 10.0 mi WNW 8.1 mph - N/A   Partly Cloudy
5:53 PM 77.0 °F 41.0 °F 28% 29.77 in 10.0 mi NW 11.5 mph - N/A   Clear
6:53 PM 73.9 °F 46.0 °F 37% 29.78 in 10.0 mi NNW 11.5 mph - N/A   Clear
8:53 PM 66.9 °F 46.9 °F 49% 29.81 in 10.0 mi NW 6.9 mph - N/A   Clear
9:53 PM 68.0 °F 41.0 °F 37% 29.81 in 10.0 mi NNW 5.8 mph - N/A   Clear
10:53 PM 60.1 °F 46.0 °F 60% 29.82 in 10.0 mi WNW 8.1 mph - N/A   Clear
11:53 PM 61.0 °F 43.0 °F 52% 29.82 in 10.0 mi NW 8.1 mph - N/A   Clear